KINEIS-3D (61221 NORAD) Tracking and Keplerian Element Data

This shows tracking and keplerian element data for the satellite.

Feedback or suggestion? Click here.




ElementValue
Catalog61221
NameKINEIS-3D
Epoch Orbit323
Epoch Day286.86834221
Epoch Year2024
RAAN13.2087
Inclination98.017
Eccentricity6.41E-05
Argument of Perigee288.2647
Mean Anonmoly71.8493
Mean Motion14.77412541
Decay Rate0.0001125
L11 61221U 24172B 24286.86834221 .00011250 00000+0 15860-2 0 9994
L22 61221 98.0170 13.2087 0000641 288.2647 71.8493 14.77412541 3234



Live tracking and technical data element details for KINEIS-3D (NORAD 61221). KINEIS-3D can be tracked NOW for your location showing map with azimuth and elevation plus other details from your city location.







IsCatalogInMostPopularTable: catalog: 61221, numindb: 24
Update: records affected: 1



GetName: 61221 KINEIS-3D

Hit Count: updated at: Fri, 06 Dec 2024 10:14:28 GMT